Pine Ridge, SD

5:26 AM MST on January 23, 2018 (GMT -0700)
Pine Ridge

Weather History for KIEN - September, 2013

Change the Weather History Date:

Friday, September 6, 2013

  Actual Average Record
Temperature  
Mean Temperature 81 °F 65 °F  
Max Temperature 99 °F 82 °F 100 °F (2002)
Min Temperature 62 °F 49 °F 29 °F (2017)
Degree Days  
Heating Degree Days 0 3  
Month to date heating degree days 1 17  
Since 1 July heating degree days 3 54  
Cooling Degree Days 16 4  
Month to date cooling degree days 67 26  
Year to date cooling degree days 719 674  
Growing Degree Days 31 (Base 50)    
Moisture  
Dew Point 57 °F    
Average Humidity 48    
Maximum Humidity 72    
Minimum Humidity 24    
Precipitation  
Precipitation T in 0.05 in 0.27 in (2008)
Month to date precipitation T 0.33  
Year to date precipitation 14.27 14.12  
Sea Level Pressure  
Sea Level Pressure 29.89 in    
Wind  
Wind Speed 5 mph (WNW)    
Max Wind Speed 26 mph    
Max Gust Speed 36 mph    
Visibility 10 miles    
Events Rain    
T = Trace of Precipitation, MM = Missing Value Source: NWS Daily Summary

Daily Weather History Graph

Daily Weather History Graph

Search for Another Location

Airport or City:

Trip Planner

Search our weather history database for the weather conditions in past years. The results will help you decide how hot, cold, wet, or windy it might be!

Date:

Astronomy

Sep. 06, 2013 Rise Set
Actual Time 6:20 AM MDT 7:15 PM MDT
Civil Twilight 5:51 AM MDT 7:44 PM MDT
Nautical Twilight 5:16 AM MDT 8:18 PM MDT
Astronomical Twilight 4:40 AM MDT 8:54 PM MDT
Moon 7:38 AM MDT (9/6) 7:36 PM MDT (9/6)
Length of Visible Light 13h 53m
Length of Day
12h 55m
New Moon, 2% of the Moon is Illuminated
Sep 6
New Moon
Sep 12
First Quarter
Sep 19
Full
Sep 26
Last Quarter
Oct 4
New

Hourly Weather History & Observations

Time (MDT) Temp. Heat Index Dew Point Humidity Pressure Visibility Wind Dir Wind Speed Gust Speed Precip Events Conditions
12:52 AM 75.9 °F - 53.1 °F 45% 29.88 in 10.0 mi WSW 4.6 mph - N/A   Clear
1:52 AM 75.0 °F - 52.0 °F 44% 29.88 in 10.0 mi Calm Calm - N/A   Clear
2:52 AM 73.9 °F - 52.0 °F 46% 29.87 in 10.0 mi SW 5.8 mph - N/A   Clear
3:52 AM 71.1 °F - 51.1 °F 49% 29.87 in 10.0 mi SSW 4.6 mph - N/A   Clear
4:52 AM 69.1 °F - 52.0 °F 54% 29.87 in 10.0 mi Calm Calm - N/A   Clear
5:52 AM 64.0 °F - 52.0 °F 65% 29.88 in 10.0 mi Calm Calm - N/A   Clear
6:52 AM 63.0 °F - 53.1 °F 70% 29.89 in 10.0 mi Calm Calm - N/A   Clear
7:52 AM 72.0 °F - 55.0 °F 55% 29.91 in 10.0 mi Calm Calm - N/A   Clear
8:52 AM 82.9 °F 82.1 °F 55.9 °F 39% 29.90 in 10.0 mi SW 5.8 mph - N/A   Clear
9:52 AM 89.1 °F 87.3 °F 55.9 °F 32% 29.90 in 10.0 mi WSW 6.9 mph - N/A   Clear
10:52 AM 91.0 °F 88.9 °F 55.0 °F 29% 29.90 in 10.0 mi West 8.1 mph - N/A   Clear
11:52 AM 93.0 °F 91.4 °F 55.9 °F 29% 29.89 in 10.0 mi WSW 6.9 mph - N/A   Clear
12:52 PM 99.0 °F 97.3 °F 55.0 °F 23% 29.86 in 10.0 mi West 4.6 mph - N/A   Clear
1:29 PM 93.2 °F 91.3 °F 55.4 °F 28% 30.00 in 10.0 mi NNE 13.8 mph - N/A   Clear
1:52 PM 96.1 °F 95.2 °F 57.9 °F 28% 29.86 in 10.0 mi North 10.4 mph - N/A   Clear
2:52 PM 95.0 °F 94.0 °F 57.9 °F 29% 29.86 in 10.0 mi NNE 8.1 mph - N/A   Clear
3:52 PM 93.9 °F 93.2 °F 59.0 °F 31% 29.87 in 10.0 mi NW 8.1 mph - N/A   Clear
4:52 PM 93.0 °F 92.0 °F 57.9 °F 31% 29.87 in 10.0 mi North 10.4 mph - N/A   Clear
5:52 PM 91.0 °F 90.9 °F 61.0 °F 36% 29.86 in 10.0 mi North 8.1 mph - N/A   Clear
6:52 PM 86.0 °F 86.3 °F 62.1 °F 44% 29.87 in 10.0 mi ESE 3.5 mph - N/A   Clear
7:52 PM 82.0 °F 83.1 °F 63.0 °F 52% 29.87 in 10.0 mi NE 3.5 mph - N/A   Clear
8:52 PM 75.9 °F - 64.0 °F 67% 29.88 in 10.0 mi Calm Calm - N/A   Clear
9:52 PM 80.1 °F 80.4 °F 57.0 °F 45% 29.92 in 10.0 mi WSW 19.6 mph 33.4 mph N/A   Mostly Cloudy
10:52 PM 77.0 °F - 59.0 °F 54% 29.90 in 10.0 mi ESE 4.6 mph - N/A   Partly Cloudy
11:52 PM 73.9 °F - 61.0 °F 64% 29.89 in 10.0 mi NE 5.8 mph - 0.00 in Rain Light Rain